Regional Weather Roundup
Issued by NWS

Home | Current Version | Previous Version | Graphics & Text | Print | Product List | Glossary On
Versions: 1 2 3 4 5 6 7 8 9 10 11 12 13 14 15 16 17 18 19 20 21 22 23 24 25 26 27 28 29 30 31 32 33 34 35 36 37 38 39 40 41 42 43 44 45 46 47 48 49 50
262
ASUS43 KLMK 231202
RWRKY
KENTUCKY REGIONAL WEATHER ROUNDUP
NATIONAL WEATHER SERVICE LOUISVILLE KY
800 AM EDT THU MAR 23 2017

NOTE "FAIR" INDICATES FEW OR NO CLOUDS BELOW 12,000 FEET
WITH NO SIGNIFICANT WEATHER AND/OR OBSTRUCTIONS TO VISIBILITY.

KYZ001>023-026-027-061>063-070>075-231300-
WESTERN AND SOUTH CENTRAL KENTUCKY

CITY           SKY/WX    TMP DP  RH WIND       PRES   REMARKS
PADUCAH        CLOUDY    42  24  49 N6        30.33R
HENDERSON      CLOUDY    36  19  51 E8        30.35R WCI  29
OWENSBORO      PTCLDY    36  21  55 E10       30.35F WCI  28
HOPKINSVILLE   CLEAR     35  24  63 E7        30.32R WCI  30
BOWLING GREEN  CLEAR     34  23  64 NE7       30.35S WCI  28
GLASGOW        NOT AVBL
$$

KYZ024-025-028>034-038-045-046-053-231300-
NORTH CENTRAL KENTUCKY

CITY           SKY/WX    TMP DP  RH WIND       PRES   REMARKS
LOUISVILLE/SDF MOCLDY    33  15  47 E7        30.40S WCI  27
LOUISVILLE/LOU CLEAR     34  17  50 E9        30.40S WCI  27
FORT KNOX      CLEAR     31  17  56 NE8       30.35S WCI  24
$$

KYZ035>037-039>044-047>052-055>060-089>105-231300-
NORTHEAST KENTUCKY

CITY           SKY/WX    TMP DP  RH WIND       PRES   REMARKS
LEXINGTON      CLOUDY    31  14  49 E13       30.40R WCI  21
COVINGTON      CLOUDY    28  16  60 E5        30.44R WCI  23
FRANKFORT      CLOUDY    30  15  53 E8        30.40R WCI  22
$$

KYZ054-064>069-076>088-106>120-231300-
SOUTHEAST KENTUCKY

CITY           SKY/WX    TMP DP  RH WIND       PRES   REMARKS
JACKSON        CLOUDY    30  15  53 VRB3      30.39R
LONDON         CLEAR     33  14  45 NE3       30.38R
SOMERSET       CLOUDY    32  18  55 E3        30.40R
MIDDLESBORO    CLEAR     30  26  84 CALM      30.40R
MONTICELLO     SUNNY     32  20  61 VRB5      30.39R WCI  27
$$





USA.gov is the U.S. government's official web portal to all federal, state and local government web resources and services.